Temperature
18 18 17 17 17 17 17 16 16 16 16 16 16 15 15 15 15 15 15 15 15 15 15 15 15 15 15 15 15 15 15 15 15 15 15 15 15 15 15 15 15 15 14
18 18 17 17 17 17 17 16 16 16 16 16 15 15 15 15 15 15 15 15 15 15 15 15 15 15 15 15 15 14 15 15 15 15 16 16 15 14 14 14 14 14 14
19 18 18 17 17 17 17 17 16 16 16 16 15 15 15 15 15 15 15 15 15 15 15 15 15 15 15 15 15 14 15 15 15 15 16 16 16 15 14 14 14 14 14
19 18 18 18 17 17 17 17 16 16 16 16 15 15 15 15 15 15 15 15 15 15 15 15 15 15 15 15 15 15 15 15 15 15 15 15 15 16 15 14 14 14 14
19 18 18 18 17 17 17 17 16 16 16 16 16 15 15 15 15 15 15 15 15 15 15 15 15 15 15 15 15 15 15 15 15 15 15 15 15 15 16 15 14 14 14
18 18 18 17 17 17 17 17 17 16 16 16 16 15 15 15 15 15 15 15 15 15 15 15 14 14 14 14 15 15 15 15 15 15 15 15 15 15 15 15 14 14 13
19 18 18 17 17 17 17 17 17 16 16 16 16 15 15 15 15 15 15 15 15 15 15 15 15 15 15 15 15 15 14 14 14 14 14 14 14 14 14 15 15 14 14
19 18 18 18 17 17 17 17 17 16 16 16 16 15 15 15 15 15 15 15 15 15 15 15 15 15 15 15 15 14 14 14 14 14 14 14 14 14 14 14 14 14 14
19 18 18 17 17 17 17 17 17 16 16 16 16 15 15 15 15 15 15 15 15 15 15 15 15 15 14 14 14 14 14 14 14 14 14 14 14 14 14 14 14 14 15
19 18 18 17 17 17 17 17 17 16 16 16 16 16 15 15 15 15 15 15 15 15 14 14 14 14 14 14 14 14 14 14 14 14 14 14 14 14 14 13 13 13 14
18 18 18 17 17 17 17 17 17 16 16 16 16 16 15 15 15 15 15 15 15 15 14 14 14 14 14 14 14 14 14 14 14 14 14 14 14 13 13 13 13 13 13
18 18 17 17 17 17 17 16 16 16 16 16 16 15 15 15 15 15 15 15 15 15 14 14 14 14 14 14 14 14 14 14 14 13 13 13 13 13 13 13 13 13 13
18 17 17 17 17 17 17 16 16 16 16 16 16 15 15 15 15 15 15 15 15 14 14 14 14 14 14 14 14 13 13 13 13 13 13 13 13 13 13 13 13 12 12
17 17 17 17 17 17 16 16 16 16 16 16 16 15 15 15 15 15 15 15 14 14 14 14 14 14 14 13 13 13 13 13 13 13 13 13 13 13 13 13 12 12 12
17 17 16 16 16 16 16 16 16 16 16 16 15 15 15 15 15 15 15 15 15 14 14 14 14 14 14 13 13 13 13 13 13 13 13 13 13 13 13 12 12 12 12
17 17 16 16 16 17 16 16 16 16 16 16 15 15 15 15 15 15 15 15 14 14 14 14 14 14 14 13 13 13 13 13 12 12 12 12 12 12 12 12 12 12 12
17 17 17 17 17 17 17 16 16 16 16 16 16 15 15 15 15 15 15 15 14 14 14 14 14 13 13 13 13 13 13 12 12 12 12 12 12 12 12 12 12 12 12
17 17 17 17 17 17 17 16 16 16 16 16 15 15 15 15 15 15 14 14 14 14 14 14 13 13 13 13 13 13 12 12 12 12 12 11 11 12 11 11 11 11 11
17 17 17 16 16 16 16 16 16 16 16 16 15 15 15 15 15 15 14 14 14 14 14 13 13 13 13 13 13 13 12 12 12 12 11 11 11 11 11 11 11 11 11
17 16 16 16 16 16 16 16 16 16 16 16 15 15 15 15 15 15 14 14 14 14 14 13 13 13 13 13 12 12 12 11 11 11 11 11 11 11 11 10 10 10 10
16 16 16 16 16 16 16 16 16 16 16 15 15 15 15 15 15 14 14 14 14 14 13 13 13 13 12 12 12 12 12 11 11 11 11 11 11 11 11 11 10 10 10
16 16 16 16 16 16 16 16 15 15 15 15 15 15 15 14 14 14 14 14 14 13 13 13 12 12 12 12 12 12 12 11 11 11 11 11 11 11 10 10 10 10 10
16 16 16 16 16 16 16 15 15 15 15 15 14 14 14 14 14 14 14 13 13 13 12 12 12 12 12 12 12 12 11 11 11 11 10 10 10 10 10 10 10 9 9
16 16 15 15 15 15 15 15 15 15 15 14 14 14 14 14 13 13 13 13 13 13 12 12 12 12 12 11 11 11 11 11 10 10 10 10 10 10 9 9 9 9 9
15 15 15 15 15 15 15 15 15 14 14 14 14 13 13 13 13 13 13 13 13 12 12 12 12 11 11 11 11 11 10 10 10 10 9 9 9 9 9 8 8 8 8
15 15 15 14 14 14 14 14 14 14 14 14 13 13 13 13 13 12 12 12 12 12 12 12 12 11 11 11 11 11 10 10 10 9 9 9 8 8 8 8 8 8 7
Wind_Speed
8 9 9 9 8 8 8 8 7 6 5 4 3 3 3 2 3 3 4 3 3 3 3 2 3 2 3 3 3 4 5 3 3 4 5 5 5 6 5 5 5 7 8
9 9 10 10 10 9 8 8 8 7 6 4 3 3 3 2 3 3 4 4 3 3 2 2 2 2 3 3 3 2 2 3 1 1 2 3 3 4 5 5 5 6 6
11 11 11 11 10 10 9 8 8 8 7 6 4 4 3 3 3 3 3 4 4 4 3 3 3 3 2 3 2 2 2 2 2 2 1 0 1 2 3 5 5 6 5
10 10 11 12 11 10 9 8 8 8 8 7 5 5 3 3 2 2 3 3 4 4 3 3 3 3 3 3 2 2 1 1 2 2 2 3 2 0 2 2 4 6 6
10 11 11 11 10 10 9 8 8 8 7 7 6 5 4 3 3 3 3 3 3 4 3 3 3 3 3 3 3 2 2 1 1 1 1 2 1 1 0 2 2 3 4
11 10 10 10 10 9 9 8 9 8 7 7 7 6 5 4 4 3 3 3 3 3 4 3 3 3 3 3 3 3 3 2 2 2 2 1 1 1 1 1 2 2 3
11 11 11 11 11 11 10 10 10 9 8 8 7 7 6 5 5 4 3 2 2 2 3 3 3 3 3 3 3 3 3 3 3 2 2 2 2 2 1 0 1 1 2
11 11 12 12 12 12 11 10 11 10 9 8 8 7 7 5 4 4 3 3 2 2 3 3 3 3 4 3 3 3 3 3 3 3 3 2 2 2 2 1 0 0 1
11 11 11 11 12 12 12 11 11 10 10 9 8 7 7 6 5 5 4 3 3 2 3 3 3 4 3 3 3 3 3 3 3 3 3 2 3 2 2 1 1 2 1
10 10 10 11 11 11 11 11 11 11 11 10 8 7 7 6 5 5 4 4 3 3 3 3 3 4 4 3 3 3 3 3 4 3 3 3 2 2 2 1 2 2 2
9 10 10 10 11 11 11 11 11 11 11 10 9 8 7 7 6 5 4 4 4 4 4 3 3 4 4 4 3 3 3 3 3 3 3 3 3 2 2 1 2 2 2
8 9 10 10 10 11 11 11 11 12 11 10 9 8 8 7 7 6 5 5 4 4 4 4 4 4 3 3 3 3 3 3 3 3 3 3 2 2 2 2 2 2 2
8 8 9 10 10 11 11 11 11 11 11 11 10 9 9 8 7 6 5 5 5 5 5 4 4 4 3 3 3 3 2 2 2 2 2 2 2 2 2 2 1 1 2
8 8 9 9 10 11 11 11 11 11 11 11 11 10 9 8 7 6 6 5 5 5 5 4 4 3 3 3 2 2 2 2 2 2 2 3 3 3 2 2 2 1 1
8 8 9 9 10 11 11 11 11 11 12 12 11 10 9 8 7 7 6 5 5 5 5 5 4 3 2 2 2 2 2 2 2 2 3 4 5 7 5 3 2 1 1
8 8 9 10 11 11 11 12 11 11 12 12 12 10 9 8 7 7 7 6 6 5 5 5 5 4 3 4 1 1 2 2 2 2 2 3 3 5 5 5 5 4 2
7 8 9 10 10 11 11 11 12 11 12 12 11 11 10 9 8 8 7 7 7 6 5 5 5 4 4 5 3 1 1 2 1 2 2 2 2 1 2 3 3 3 4
7 8 8 8 9 10 10 10 11 12 12 12 11 11 10 10 9 8 8 8 7 6 5 5 5 4 4 5 4 3 2 2 2 1 1 1 2 2 1 1 1 2 3
6 7 7 7 8 9 10 11 11 11 11 11 11 11 11 10 9 9 8 7 7 6 6 5 5 5 5 6 5 4 3 2 2 1 1 0 1 4 2 1 0 1 2
4 5 6 7 7 8 10 11 11 11 11 11 11 10 10 10 10 9 8 7 7 6 6 5 5 5 4 6 5 5 3 3 2 2 1 2 1 2 2 2 1 1 1
4 5 6 6 7 8 10 10 10 11 10 10 10 10 10 9 9 8 7 7 7 7 6 6 5 4 4 6 6 4 3 3 2 2 1 1 3 1 2 3 2 2 3
4 5 6 6 6 8 9 9 8 8 8 8 9 9 9 8 7 8 7 7 7 7 6 6 5 4 4 4 5 5 3 2 2 2 1 2 4 1 2 2 1 2 4
4 4 5 6 6 7 7 8 7 7 8 9 9 8 8 7 7 8 8 7 7 6 6 5 5 4 4 4 6 6 4 2 2 1 2 2 2 3 2 2 2 3 3
4 4 6 6 6 6 6 6 7 8 8 9 9 8 8 8 7 6 6 6 6 6 6 5 5 4 4 4 4 4 4 5 3 2 3 4 3 3 1 2 3 3 2
5 5 6 6 6 6 6 6 7 8 8 9 9 8 7 7 7 6 5 6 5 5 5 5 5 5 5 4 3 4 4 3 2 2 2 3 3 3 2 2 2 3 3
6 6 6 6 6 6 6 6 7 8 8 8 8 7 6 6 6 6 5 3 2 4 2 1 2 3 2 6 5 4 3 3 4 4 3 3 3 3 3 3 3 4 4
Wind_Direction
178 175 176 175 173 172 169 163 164 157 151 147 152 144 128 107 86 72 64 60 57 60 72 72 74 72 93 102 108 107 112 106 105 111 104 94 76 68 60 46 48 54 49
180 178 181 179 180 176 175 171 171 168 164 158 150 139 126 105 82 75 68 54 61 59 67 82 89 91 98 107 101 105 110 104 93 110 126 124 110 68 55 55 48 49 53
191 184 186 184 182 181 178 178 176 171 169 162 151 144 133 136 122 101 78 55 58 64 64 72 78 87 102 100 93 118 124 116 95 37 356 11 79 103 72 54 57 53 48
197 188 188 187 187 184 181 181 178 172 170 169 169 164 160 140 115 101 93 83 66 66 66 76 77 84 85 94 95 78 92 111 116 93 26 28 47 333 125 89 62 54 52
196 191 189 188 186 180 180 179 175 173 172 173 168 173 161 137 122 114 108 94 78 69 71 68 75 81 84 83 74 73 65 75 58 80 83 74 65 341 50 104 89 69 56
196 191 184 180 175 171 173 174 173 170 171 176 174 173 161 154 146 137 121 111 98 82 79 76 81 87 87 87 83 85 80 59 61 55 59 54 51 43 38 89 109 85 64
193 188 182 179 174 172 172 174 175 173 175 178 177 173 170 168 165 156 136 126 111 96 85 83 81 82 83 84 86 91 80 77 69 54 55 51 45 27 8 59 98 97 93
193 189 185 183 179 176 174 177 178 177 176 180 178 175 170 171 159 157 148 136 116 100 98 91 84 83 86 90 86 83 77 72 74 67 61 63 64 45 35 18 328 183 118
193 190 186 185 183 180 179 179 180 179 179 180 178 175 170 168 162 163 152 136 128 113 110 104 100 92 89 90 94 85 80 71 65 63 66 59 66 47 33 28 343 319 325
187 188 187 186 185 183 180 179 182 181 181 181 178 172 172 169 169 165 156 151 144 130 130 118 108 104 99 96 89 88 75 83 74 53 52 52 62 60 53 27 9 352 345
186 185 185 185 182 181 179 179 181 181 180 181 178 174 174 173 173 167 163 162 154 149 144 136 125 112 107 106 103 94 91 83 82 74 65 62 48 48 46 35 29 25 21
184 182 179 177 179 180 181 182 181 180 181 181 178 177 171 174 177 172 168 165 159 154 150 141 136 126 119 113 110 102 96 86 74 68 65 65 69 50 34 27 31 36 17
178 176 175 178 180 181 182 183 182 181 179 179 178 179 176 176 177 172 166 167 164 160 155 148 144 138 137 129 121 114 101 87 74 71 64 57 60 57 51 27 34 42 41
179 179 180 182 181 182 183 183 181 179 178 176 180 183 181 177 177 172 169 172 168 164 162 154 150 146 145 145 141 129 115 102 86 67 53 43 35 25 29 32 44 47 56
183 185 186 184 182 183 184 182 182 180 179 178 182 184 181 178 176 170 171 169 164 165 161 156 152 146 147 146 160 157 147 128 109 95 76 60 51 34 26 17 24 35 29
191 190 190 187 186 185 185 182 182 183 182 182 182 178 178 175 175 173 172 166 163 161 156 157 154 152 145 100 52 261 160 152 137 121 104 96 93 88 75 54 37 15 359
195 195 193 192 193 191 186 184 183 182 185 184 179 177 176 175 177 173 169 166 166 161 158 162 160 161 132 129 140 247 182 158 144 135 120 98 90 141 103 108 126 70 39
200 198 197 193 193 191 186 182 179 182 185 184 180 177 177 177 174 173 171 173 172 164 168 170 167 156 144 146 154 185 186 159 152 150 144 135 110 67 37 87 62 40 33
205 201 198 189 187 186 183 179 180 182 183 184 184 180 178 176 175 175 175 174 172 170 172 171 171 168 161 156 168 205 182 175 168 163 153 183 123 77 333 278 42 41 51
196 189 182 176 176 179 178 179 181 183 186 186 184 180 177 177 180 180 178 172 172 172 171 171 182 179 172 155 175 220 196 191 179 166 156 80 63 92 307 263 268 294 336
172 166 167 170 172 172 174 180 183 188 186 180 178 176 176 178 178 175 173 172 171 171 174 172 179 181 173 165 177 218 217 203 200 195 190 131 123 135 309 297 306 339 317
146 154 157 158 161 168 174 177 182 181 171 169 171 172 173 171 169 167 169 172 170 173 177 180 179 182 174 171 176 191 231 274 210 213 205 128 132 160 277 293 25 326 289
136 143 146 145 150 162 172 174 171 165 164 165 168 168 166 166 169 168 168 170 175 181 185 185 185 184 179 167 168 181 190 225 224 198 73 106 167 197 210 180 234 253 264
129 134 137 141 149 157 165 167 160 161 162 164 165 165 165 164 167 169 172 175 181 186 188 188 190 186 184 182 181 185 182 183 197 185 155 171 201 227 234 220 231 254 279
128 134 138 144 151 155 157 157 157 160 161 161 160 162 163 161 166 167 172 181 180 183 186 188 188 188 194 182 167 189 196 203 191 186 203 219 221 231 237 248 260 268 267
135 136 136 144 152 155 156 158 161 162 163 160 160 160 159 158 161 163 157 105 112 116 126 119 189 185 144 133 147 164 156 155 169 200 217 229 238 245 254 260 264 265 270
Height
1549 1551 1553 1555 1557 1559 1560 1561 1563 1564 1565 1567 1568 1569 1570 1570 1571 1570 1570 1570 1570 1570 1570 1570 1570 1569 1569 1569 1569 1569 1569 1569 1570 1570 1570 1570 1570 1570 1569 1568 1568 1567 1566
1547 1549 1552 1554 1556 1558 1559 1561 1563 1564 1565 1566 1568 1569 1570 1571 1571 1571 1571 1571 1571 1570 1571 1571 1571 1570 1570 1570 1570 1570 1571 1570 1570 1571 1571 1571 1572 1571 1570 1570 1569 1568 1567
1545 1547 1550 1552 1555 1557 1558 1560 1562 1564 1565 1566 1568 1569 1570 1571 1572 1572 1572 1572 1571 1571 1571 1571 1571 1571 1571 1571 1571 1571 1571 1571 1571 1571 1572 1572 1571 1572 1572 1571 1570 1569 1568
1543 1545 1548 1551 1553 1555 1558 1560 1562 1563 1565 1566 1568 1569 1570 1572 1572 1572 1573 1572 1572 1572 1572 1572 1572 1572 1572 1572 1572 1572 1572 1572 1572 1572 1572 1573 1572 1572 1573 1573 1571 1570 1569
1540 1543 1546 1548 1551 1554 1556 1559 1561 1563 1564 1566 1567 1569 1570 1571 1572 1572 1573 1573 1573 1573 1573 1573 1573 1573 1573 1573 1572 1572 1573 1573 1573 1573 1573 1572 1572 1573 1573 1573 1573 1572 1571
1538 1541 1544 1546 1549 1552 1554 1557 1559 1561 1563 1565 1567 1568 1570 1571 1572 1573 1574 1574 1574 1574 1574 1574 1574 1574 1574 1573 1573 1573 1573 1573 1573 1573 1573 1573 1573 1573 1573 1573 1572 1572 1572
1535 1538 1541 1544 1547 1549 1552 1555 1558 1560 1562 1564 1566 1568 1569 1571 1572 1573 1574 1574 1575 1575 1575 1575 1575 1574 1574 1574 1574 1574 1574 1574 1573 1573 1573 1573 1573 1573 1573 1573 1573 1572 1572
1532 1535 1538 1541 1544 1547 1550 1553 1556 1559 1561 1563 1565 1567 1569 1570 1572 1572 1574 1574 1575 1575 1575 1575 1575 1575 1575 1575 1575 1575 1574 1574 1574 1574 1573 1573 1573 1573 1573 1573 1573 1573 1573
1529 1532 1536 1538 1541 1545 1548 1551 1554 1557 1560 1562 1564 1566 1568 1569 1571 1572 1573 1574 1575 1575 1575 1576 1576 1575 1575 1575 1576 1575 1575 1575 1575 1574 1574 1574 1573 1573 1573 1573 1573 1574 1573
1527 1530 1533 1536 1539 1543 1546 1549 1552 1555 1558 1561 1563 1565 1567 1569 1570 1572 1573 1574 1575 1575 1576 1576 1576 1576 1576 1576 1576 1576 1575 1575 1575 1574 1574 1574 1574 1573 1573 1572 1572 1573 1573
1525 1528 1531 1534 1537 1540 1544 1547 1550 1553 1557 1559 1562 1564 1566 1568 1570 1571 1572 1573 1574 1575 1576 1576 1577 1577 1577 1576 1576 1576 1576 1576 1576 1575 1575 1574 1574 1574 1573 1573 1572 1572 1572
1523 1526 1529 1532 1535 1538 1541 1545 1548 1552 1555 1558 1561 1563 1565 1567 1569 1570 1571 1573 1574 1575 1576 1576 1577 1577 1577 1577 1577 1577 1576 1576 1576 1576 1575 1575 1574 1574 1573 1573 1572 1572 1571
1521 1524 1527 1529 1532 1535 1539 1543 1546 1550 1553 1556 1559 1562 1564 1566 1568 1569 1571 1572 1573 1574 1575 1576 1577 1577 1577 1577 1577 1577 1577 1577 1576 1576 1576 1575 1575 1574 1574 1573 1573 1572 1571
1520 1522 1525 1527 1531 1534 1537 1541 1544 1547 1551 1554 1557 1560 1563 1565 1567 1568 1570 1571 1572 1574 1575 1576 1576 1577 1577 1577 1577 1577 1577 1577 1576 1576 1576 1575 1575 1574 1574 1573 1572 1572 1571
1518 1521 1523 1526 1529 1532 1535 1538 1542 1545 1549 1552 1555 1558 1561 1563 1565 1567 1569 1570 1571 1573 1574 1575 1576 1576 1576 1577 1577 1577 1577 1577 1576 1576 1575 1575 1574 1573 1573 1572 1572 1571 1571
1516 1519 1521 1524 1527 1530 1533 1536 1539 1543 1547 1550 1553 1556 1559 1561 1564 1566 1567 1569 1570 1572 1573 1574 1575 1575 1576 1576 1576 1576 1576 1576 1576 1576 1575 1574 1573 1572 1572 1571 1570 1570 1570
1514 1516 1519 1522 1525 1528 1531 1534 1537 1541 1544 1548 1551 1554 1557 1559 1562 1564 1566 1567 1569 1570 1572 1573 1573 1574 1575 1575 1575 1575 1575 1575 1575 1575 1574 1573 1572 1572 1572 1571 1570 1569 1568
1512 1514 1517 1520 1523 1526 1529 1532 1535 1538 1542 1545 1548 1551 1554 1557 1560 1562 1564 1566 1568 1569 1570 1571 1572 1573 1573 1573 1574 1574 1574 1574 1574 1573 1573 1573 1572 1571 1571 1570 1569 1569 1567
1510 1512 1515 1517 1520 1523 1526 1530 1533 1536 1539 1542 1546 1549 1552 1555 1558 1560 1562 1564 1566 1567 1569 1570 1570 1571 1572 1572 1572 1572 1572 1572 1572 1572 1572 1572 1571 1570 1569 1569 1569 1568 1566
1508 1510 1512 1515 1518 1521 1524 1527 1530 1533 1537 1540 1543 1546 1549 1552 1555 1558 1560 1562 1564 1565 1567 1568 1569 1569 1570 1570 1570 1570 1571 1571 1571 1571 1570 1570 1569 1569 1568 1568 1567 1566 1565
1506 1508 1510 1513 1515 1518 1522 1525 1528 1531 1534 1537 1541 1544 1547 1550 1553 1555 1557 1559 1561 1563 1564 1565 1566 1567 1568 1568 1569 1569 1569 1569 1569 1569 1569 1568 1568 1567 1566 1566 1565 1564 1563
1504 1506 1508 1511 1514 1517 1520 1523 1526 1529 1532 1535 1538 1541 1544 1547 1550 1552 1555 1557 1559 1560 1562 1563 1564 1565 1565 1566 1566 1567 1567 1567 1567 1567 1567 1566 1566 1565 1565 1564 1563 1562 1561
1503 1505 1507 1509 1512 1515 1518 1521 1524 1527 1529 1532 1535 1538 1541 1544 1546 1549 1551 1554 1556 1557 1559 1560 1561 1562 1563 1563 1564 1564 1564 1565 1565 1565 1564 1564 1564 1563 1562 1562 1561 1560 1559
1502 1504 1506 1508 1511 1514 1517 1520 1523 1525 1528 1531 1533 1536 1539 1541 1544 1546 1548 1551 1553 1554 1556 1557 1558 1559 1560 1561 1561 1561 1562 1562 1562 1562 1562 1562 1561 1561 1560 1559 1559 1558 1557
1501 1503 1505 1507 1510 1513 1515 1518 1521 1524 1526 1529 1531 1534 1536 1539 1541 1543 1546 1548 1550 1551 1553 1554 1555 1556 1557 1558 1558 1559 1559 1559 1559 1559 1559 1559 1559 1558 1558 1557 1556 1555 1554
1501 1503 1505 1507 1509 1511 1514 1517 1520 1522 1525 1527 1529 1532 1534 1536 1539 1541 1543 1545 1547 1549 1550 1552 1553 1554 1555 1555 1556 1556 1557 1557 1557 1557 1557 1557 1556 1556 1555 1554 1553 1552 1551